[[{"header":{"parameterUnit":"m.s-1","parameterCategory":1,"la1":30.2991,"la2":30.254,"lo1":-89.0895,"lo2":-89.0444,"dy":0.0017,"dx":0.0017,"nx":28,"ny":28,"refTime":"2025-06-02T03:00:00:Z","depth":0,"parameterNumber":2,"parameterNumberName":"U-component_of_WINDS"},"data":[0,0,0,0,0,0,0,0,0,0,0,0,0,0,0,0,0,0,0,0,0,0,0,0,0,0,0,0,0,0,0,0,0,0,0,0,0,0,0,0,0,0,0,0,0,0,0,0,0,0,0,0,0,0,0,0,0,0,-2.3003,-2.3002,0,-2.2962,-2.2962,-2.2961,-2.2886,-2.2885,-2.2883,-2.2882,-2.284,-2.284,-2.2841,0,0,0,0,0,0,0,0,0,0,0,0,0,-2.3017,-2.3018,-2.3003,-2.3002,-2.3002,-2.2962,-2.2962,-2.2961,-2.2886,-2.2885,-2.2883,-2.2881,-2.284,-2.284,-2.2841,0,0,0,0,0,0,0,0,0,0,0,0,0,-2.2998,-2.3018,-2.3003,-2.296,-2.2955,-2.2962,-2.2962,-2.2961,-2.2887,-2.2884,-2.2882,-2.288,-2.284,-2.284,-2.2841,-2.2887,0,0,-2.2842,-2.2842,0,0,0,0,0,0,0,0,-2.2999,-2.2997,-2.2967,-2.2963,-2.2958,-2.2927,-2.2952,-2.2936,-2.2887,-2.2913,-2.2882,-2.2879,-2.2871,-2.2869,-2.2866,-2.2885,-2.2883,-2.2842,-2.2842,-2.2842,-2.2842,0,0,0,0,0,0,0,-2.3,-2.2998,-2.2987,-2.2966,-2.2961,-2.2943,-2.2938,-2.2948,-2.2905,-2.291,-2.2905,-2.2901,-2.2868,-2.2865,-2.2864,-2.2882,-2.2842,-2.2842,-2.2842,-2.2843,-2.2939,-2.2941,0,0,0,0,0,0,-2.3008,-2.3,-2.2988,-2.2986,-2.2973,-2.2945,-2.2939,-2.2939,-2.2904,-2.2897,-2.2903,-2.2898,-2.2866,-2.2864,-2.2862,-2.2915,-2.2842,-2.2843,-2.2843,-2.2937,-2.294,-2.2942,0,0,0,0,0,0,-2.3008,-2.3007,-2.299,-2.2991,-2.2988,-2.2947,-2.2948,-2.294,-2.2937,-2.2899,-2.289,-2.2908,-2.2864,-2.2862,-2.2882,-2.2912,-2.2843,-2.2843,-2.2934,-2.2938,-2.2941,-2.3019,0,0,0,0,0,0,-2.3009,-2.3008,-2.3024,-2.2992,-2.2988,-2.3009,-2.295,-2.294,-2.2938,-2.293,-2.2901,-2.2894,-2.2862,-2.2881,-2.2882,-2.2911,-2.2843,-2.2931,-2.2936,-2.294,-2.3014,-2.3025,-2.3035,0,0,0,0,0,-2.301,-2.3048,-2.3026,-2.3025,-2.3007,-2.3011,-2.3009,-2.2971,-2.294,-2.2957,-2.2933,-2.2895,-2.2909,-2.2884,-2.2884,-2.2914,-2.2929,-2.2934,-2.2939,-2.3009,-2.3023,-2.3034,0,0,0,0,0,0,-2.3083,-2.3042,-2.3017,-2.3046,-2.3033,-2.2998,-2.3018,-2.2986,-2.2981,-2.2974,-2.2928,-2.2922,-2.2948,-2.2933,-2.2906,-2.2958,-2.2913,-2.2919,-2.2966,-2.2979,-2.2989,-2.2992,-2.2844,0,0,0,0,0,-2.3103,-2.3109,-2.3073,-2.3102,-2.3097,-2.3059,-2.3059,-2.3031,-2.3015,-2.3009,-2.2986,-2.2973,-2.2974,-2.2976,-2.2975,-2.3012,-2.3005,-2.3033,-2.3043,-2.3052,-2.3057,-2.3077,-2.3089,-2.2959,-2.2959,-2.2959,0,0,-2.3144,-2.3122,-2.3128,-2.3116,-2.3102,-2.3111,-2.3054,-2.3065,-2.307,-2.3011,-2.3028,-2.3012,-2.2993,-2.3023,-2.3034,-2.3011,-2.3092,-2.3059,-2.3066,-2.3066,-2.3084,-2.3096,-2.3107,-2.2963,-2.2962,-2.2962,0,0,-2.3221,-2.3205,-2.3228,-2.3216,-2.3197,-2.3172,-2.3178,-2.3149,-2.3136,-2.3153,-2.3109,-2.3115,-2.3118,-2.3108,-2.3103,-2.318,-2.3146,-2.3182,-2.3236,-2.3256,-2.3266,-2.3275,-2.3303,-2.3314,-2.3187,-2.3187,-2.3187,0,-2.3273,-2.3283,-2.3243,-2.3257,-2.3254,-2.3202,-2.3225,-2.3216,-2.3197,-2.3196,-2.3171,-2.3175,-2.3159,-2.3186,-2.3205,-2.3203,-2.3208,-2.3184,-2.3268,-2.3276,-2.3284,-2.331,-2.3321,-2.3192,-2.3191,-2.3191,-2.319,0,-2.3349,-2.3357,-2.3378,-2.3362,-2.3361,-2.338,-2.3344,-2.3348,-2.3322,-2.33,-2.3319,-2.3299,-2.3294,-2.3298,-2.3272,-2.3322,-2.3308,-2.3276,-2.323,-2.3302,-2.3326,-2.3335,-2.3198,-2.3196,-2.3195,-2.3194,0,0,-2.3469,-2.3433,-2.3442,-2.3435,-2.3411,-2.3417,-2.3434,-2.343,-2.3435,-2.3425,-2.3438,-2.3444,-2.3415,-2.341,-2.3382,-2.34,-2.3464,-2.3366,-2.3365,-2.3385,-2.3519,-2.3543,-2.3556,-2.3442,-2.3444,-2.3445,-2.3521,0,-2.3541,-2.3568,-2.3534,-2.3569,-2.3576,-2.3529,-2.3544,-2.3532,-2.3513,-2.3517,-2.3496,-2.3501,-2.3462,-2.3459,-2.3475,-2.3453,-2.349,-2.3447,-2.3455,-2.3456,-2.346,-2.3568,-2.3593,-2.3665,-2.353,-2.3532,-2.3533,0,-2.3628,-2.3623,-2.3659,-2.3635,-2.3637,-2.3651,-2.3646,-2.365,-2.3637,-2.3622,-2.3618,-2.3586,-2.3602,-2.3559,-2.3582,-2.3553,-2.3555,-2.3545,-2.3547,-2.3546,-2.3498,-2.3569,-2.3687,-2.3698,-2.3547,-2.3546,-2.3545,0,-2.3712,-2.3715,-2.3737,-2.3732,-2.3705,-2.3717,-2.3706,-2.369,-2.3691,-2.3686,-2.3686,-2.3684,-2.3683,-2.3682,-2.3651,-2.3622,-2.3679,-2.3632,-2.3667,-2.3668,-2.368,-2.3679,-2.3799,-2.3682,-2.3682,-2.3682,-2.3681,0,-2.3796,-2.3819,-2.3775,-2.3788,-2.3814,-2.3776,-2.3803,-2.3788,-2.3775,-2.3785,-2.3744,-2.3755,-2.3713,-2.372,-2.3696,-2.3719,-2.3719,-2.3708,-2.3701,-2.3711,-2.3713,-2.3711,-2.3705,-2.3685,-2.3684,-2.3683,-2.3683,0,-2.3893,-2.3864,-2.3885,-2.3859,-2.3853,-2.3873,-2.3851,-2.3863,-2.3843,-2.3857,-2.3858,-2.3826,-2.3832,-2.3802,-2.3802,-2.3786,-2.3822,-2.3807,-2.3826,-2.3822,-2.3858,-2.3855,-2.398,-2.3995,-2.387,-2.3871,-2.3872,0,-2.3948,-2.3965,-2.3942,-2.3946,-2.3938,-2.3945,-2.3946,-2.391,-2.3912,-2.39,-2.3914,-2.3917,-2.3917,-2.393,-2.3907,-2.3908,-2.3893,-2.3937,-2.3892,-2.3903,-2.3894,-2.3893,-2.3895,-2.3946,-2.3947,-2.3948,-2.3949,0,-2.4049,-2.4034,-2.4036,-2.4035,-2.4037,-2.4034,-2.4028,-2.4034,-2.3996,-2.4001,-2.4007,-2.4008,-2.401,-2.4014,-2.4011,-2.4,-2.3969,-2.3964,-2.3972,-2.3982,-2.3993,-2.3988,-2.3851,-2.3961,-2.396,-2.3959,-2.3958,-2.3958,-2.4126,-2.414,-2.4126,-2.4131,-2.4123,-2.412,-2.413,-2.4112,-2.4117,-2.4115,-2.4095,-2.4105,-2.4094,-2.4086,-2.408,-2.4088,-2.4067,-2.4079,-2.4082,-2.4085,-2.4092,-2.3993,-2.4088,-2.4087,-2.4087,-2.4087,-2.4086,0,-2.4225,-2.4214,-2.4219,-2.4213,-2.4218,-2.4189,-2.4182,-2.4187,-2.4197,-2.4189,-2.4191,-2.42,-2.4204,-2.4183,-2.4185,-2.4196,-2.4182,-2.4198,-2.4196,-2.4195,-2.411,-2.4103,-2.4209,-2.4209,-2.4209,-2.4209,-2.4209,-2.4209,-2.4277,-2.4299,-2.4284,-2.4303,-2.4292,-2.4302,-2.4301,-2.4298,-2.4291,-2.4303,-2.4306,-2.4293,-2.428,-2.4281,-2.4285,-2.4279,-2.4281,-2.4302,-2.4291,-2.4212,-2.42,-2.4189,-2.4182,-2.4303,-2.4303,-2.4375,-2.4376,-2.4376]},{"header":{"parameterUnit":"m.s-1","parameterCategory":1,"la1":30.2991,"la2":30.254,"lo1":-89.0895,"lo2":-89.0444,"dy":0.0017,"dx":0.0017,"nx":28,"ny":28,"refTime":"2025-06-02T03:00:00:Z","depth":0,"parameterNumber":3,"parameterNumberName":"V-component_of_WINDS"},"data":[0,0,0,0,0,0,0,0,0,0,0,0,0,0,0,0,0,0,0,0,0,0,0,0,0,0,0,0,0,0,0,0,0,0,0,0,0,0,0,0,0,0,0,0,0,0,0,0,0,0,0,0,0,0,0,0,0,0,2.9337,2.9337,0,2.9339,2.9339,2.9339,2.9381,2.9383,2.9384,2.9385,2.9383,2.9382,2.9381,0,0,0,0,0,0,0,0,0,0,0,0,0,2.9367,2.9366,2.9337,2.9337,2.9337,2.9339,2.9339,2.9339,2.9381,2.9383,2.9384,2.9385,2.9383,2.9382,2.9381,0,0,0,0,0,0,0,0,0,0,0,0,0,2.936,2.9366,2.9337,2.9359,2.9361,2.9339,2.9339,2.9339,2.9381,2.9383,2.9384,2.9386,2.9384,2.9382,2.9381,2.9338,0,0,2.9376,2.9375,0,0,0,0,0,0,0,0,2.936,2.9359,2.9355,2.9357,2.9359,2.9362,2.9349,2.9339,2.9381,2.9373,2.9385,2.9387,2.9374,2.9374,2.937,2.9338,2.9338,2.9376,2.9375,2.9374,2.9373,0,0,0,0,0,0,0,2.936,2.9359,2.9338,2.9355,2.9358,2.9367,2.9368,2.9347,2.9364,2.9374,2.9377,2.9377,2.9376,2.9372,2.9371,2.9338,2.9376,2.9374,2.9373,2.9373,2.927,2.9268,0,0,0,0,0,0,2.9359,2.9359,2.9338,2.9338,2.9364,2.9365,2.9366,2.9359,2.9365,2.9367,2.9375,2.9379,2.9374,2.9372,2.9371,2.932,2.9374,2.9372,2.9371,2.9272,2.9269,2.9268,0,0,0,0,0,0,2.9359,2.9356,2.9338,2.9349,2.9348,2.9363,2.9355,2.9358,2.9355,2.9366,2.9369,2.9368,2.9375,2.9373,2.9346,2.9321,2.9372,2.937,2.9274,2.9271,2.9269,2.922,0,0,0,0,0,0,2.936,2.9356,2.9341,2.9349,2.9347,2.9314,2.9354,2.9357,2.9352,2.9357,2.936,2.9362,2.9376,2.9348,2.9344,2.932,2.9369,2.9276,2.9272,2.9269,2.9223,2.9216,2.9209,0,0,0,0,0,2.9361,2.9326,2.934,2.9337,2.9328,2.9312,2.9311,2.9329,2.935,2.9334,2.9342,2.9362,2.9325,2.9345,2.9341,2.9315,2.9278,2.9273,2.927,2.9227,2.9217,2.9209,0,0,0,0,0,0,2.9313,2.9328,2.9343,2.931,2.931,2.9319,2.93,2.9318,2.9311,2.9315,2.9336,2.9337,2.9306,2.9308,2.9331,2.9274,2.9305,2.93,2.9273,2.9264,2.9257,2.9256,2.9368,0,0,0,0,0,2.9299,2.9286,2.9299,2.9269,2.9268,2.9284,2.9278,2.9292,2.9292,2.9291,2.9297,2.9295,2.9283,2.9274,2.9264,2.9225,2.9225,2.9205,2.9198,2.9192,2.9187,2.9166,2.9156,2.9254,2.9255,2.9255,0,0,2.927,2.9276,2.9266,2.926,2.9261,2.9246,2.9284,2.9266,2.9255,2.9288,2.9263,2.9267,2.9266,2.9233,2.9219,2.9234,2.916,2.9187,2.9182,2.918,2.9161,2.9151,2.9143,2.9252,2.9252,2.9253,0,0,2.9208,2.9212,2.9187,2.9188,2.919,2.9201,2.9195,2.9202,2.9207,2.9182,2.9207,2.9194,2.9172,2.9171,2.9167,2.9106,2.9124,2.9102,2.9063,2.9042,2.9034,2.9027,2.9004,2.8996,2.9097,2.9097,2.9097,0,2.917,2.915,2.9172,2.9153,2.9149,2.918,2.9154,2.9154,2.9152,2.9148,2.9166,2.914,2.9142,2.9108,2.9094,2.909,2.9083,2.91,2.9034,2.9027,2.9021,2.8999,2.899,2.9094,2.9094,2.9095,2.9095,0,2.9103,2.9088,2.9068,2.9066,2.906,2.9038,2.9055,2.9047,2.9061,2.907,2.9044,2.9048,2.9038,2.9032,2.9046,2.9,2.9009,2.903,2.9061,2.9008,2.8988,2.898,2.909,2.9091,2.9092,2.9093,0,0,2.9009,2.9022,2.9013,2.9013,2.9018,2.9007,2.8986,2.8978,2.8969,2.8967,2.8949,2.8931,2.8951,2.8946,2.896,2.8942,2.8892,2.8965,2.8966,2.895,2.8841,2.8824,2.8814,2.8905,2.8904,2.8903,2.884,0,2.8948,2.8914,2.8933,2.8896,2.8882,2.8912,2.8894,2.8894,2.8902,2.8891,2.8899,2.8886,2.8913,2.8911,2.8894,2.8902,2.887,2.8907,2.8887,2.8886,2.8884,2.8803,2.8785,2.8726,2.8833,2.8831,2.883,0,2.8872,2.8868,2.8829,2.8837,2.8832,2.8815,2.881,2.8799,2.88,2.8807,2.8803,2.8822,2.88,2.8833,2.8803,2.8827,2.8821,2.8823,2.8821,2.8818,2.8853,2.8796,2.8708,2.8698,2.8818,2.8819,2.882,0,2.8806,2.8791,2.8766,2.8765,2.8774,2.8761,2.8764,2.8767,2.8761,2.8756,2.8752,2.8744,2.8739,2.8732,2.8748,2.877,2.8716,2.8749,2.8719,2.8719,2.8705,2.8705,2.8612,2.8703,2.8703,2.8704,2.8704,0,2.8735,2.8709,2.8736,2.872,2.8692,2.8715,2.8687,2.8693,2.8696,2.8681,2.8707,2.8692,2.8714,2.8701,2.8713,2.8686,2.8684,2.8688,2.8691,2.8685,2.8684,2.8679,2.8683,2.8701,2.8702,2.8702,2.8703,0,2.8655,2.8672,2.8646,2.8658,2.866,2.8639,2.8648,2.8633,2.8644,2.8625,2.8621,2.8637,2.8623,2.8639,2.8626,2.8634,2.8597,2.8607,2.8597,2.8599,2.8568,2.857,2.8467,2.8454,2.8555,2.8554,2.8553,0,2.8608,2.8589,2.8599,2.8591,2.8593,2.8581,2.8575,2.8597,2.859,2.859,2.8575,2.8564,2.8556,2.8533,2.8542,2.8532,2.8541,2.8506,2.854,2.8534,2.8539,2.8539,2.8537,2.8498,2.8497,2.8496,2.8495,0,2.8521,2.8531,2.8522,2.8517,2.851,2.8506,2.8504,2.8497,2.8519,2.851,2.8497,2.8491,2.8479,2.8467,2.846,2.8462,2.8481,2.8485,2.8477,2.8469,2.8463,2.8465,2.8576,2.8486,2.8487,2.8488,2.8488,2.8489,2.8455,2.844,2.8444,2.8434,2.8435,2.8433,2.842,2.8429,2.8419,2.8412,2.8425,2.8409,2.841,2.8403,2.8403,2.839,2.8405,2.8394,2.8391,2.8387,2.8382,2.8467,2.8389,2.8389,2.8389,2.8389,2.839,0,2.8369,2.8373,2.8364,2.8361,2.8353,2.8375,2.8374,2.8365,2.835,2.8351,2.8343,2.8328,2.8317,2.8326,2.8316,2.8304,2.8312,2.83,2.83,2.83,2.837,2.8377,2.8293,2.8293,2.8293,2.8293,2.8293,2.8293,2.8322,2.8297,2.8308,2.8283,2.8288,2.8273,2.8271,2.8268,2.8269,2.8251,2.8243,2.8249,2.8253,2.8244,2.8235,2.8238,2.8232,2.8216,2.8222,2.8286,2.8295,2.8304,2.8311,2.8215,2.8215,2.8154,2.8153,2.8152]}]]